This demonstration page uses our WeatherBlox Daily Observations layout. Learn more.

Left ArrowRight Arrow

39.08367, -84.50855

Hourly Observations for December 11, 2016

Temp ( °F °C ) Dew Point ( °F °C ) Humidity (%) Winds ( mph kmh ) Pressure ( in mb ) Visibility ( mi km ) Precip ( " mm )
12:53 am 00:53 Cloudy 31 -0.6 18 -7.8 59 59 Calm 30.42 1030 10 16 0.00 0.00
1:53 am 01:53 Cloudy 30 -1.1 21 -6.1 69 69 NNE 5 7 30.41 1030 10 16 0.00 0.00
2:53 am 02:53 Cloudy 30 -1.1 20 -6.7 66 66 ENE 3 6 30.40 1030 10 16 0.00 0.00
3:53 am 03:53 Cloudy 30 -1.1 20 -6.7 66 66 ENE 3 6 30.36 1028 10 16 0.00 0.00
4:53 am 04:53 Cloudy 30 -1.1 20 -6.7 66 66 Calm 30.36 1028 10 16 0.00 0.00
5:53 am 05:53 Cloudy 31 -0.6 19 -7.2 61 61 Calm 30.35 1028 10 16 0.00 0.00
6:53 am 06:53 Cloudy 31 -0.6 20 -6.7 64 64 Calm 30.33 1027 10 16 0.00 0.00
7:53 am 07:53 Cloudy 32 0 19 -7.2 59 59 VRB 3 6 30.31 1026 10 16 0.00 0.00
8:53 am 08:53 Cloudy 32 0 20 -6.7 61 61 S 7 11 30.29 1026 10 16 0.00 0.00
9:53 am 09:53 Cloudy 34 1.1 20 -6.7 56 56 VRB 5 7 30.24 1024 10 16 0.00 0.00
10:53 am 10:53 Cloudy 36 2.2 20 -6.7 52 52 S 8 13 30.23 1024 10 16 0.00 0.00
11:53 am 11:53 Partly Cloudy 39 3.9 20 -6.7 46 46 S 8 13 30.15 1021 10 16 0.00 0.00
12:53 pm 12:53 Cloudy 42 5.6 22 -5.6 45 45 SSW 6 9 30.10 1019 10 16 0.00 0.00
1:53 pm 13:53 Cloudy 43 6.1 23 -5 45 45 SSE 6 9 30.05 1018 10 16 0.00 0.03
2:53 pm 14:53 Cloudy with Light Rain 43 6.1 29 -1.7 58 58 NNE 3 6 30.02 1017 10 16 0.00 0.03
3:53 pm 15:53 Cloudy 42 5.6 33 0.6 71 71 NE 3 6 30.01 1016 10 16 0.00 0.03
4:53 pm 16:53 Cloudy 40 4.4 35 1.7 83 83 ENE 3 6 29.98 1015 10 16 0.00 0.03
5:53 pm 17:53 Cloudy with Light Rain 39 3.9 36 2.2 89 89 Calm 29.96 1015 10 16 0.01 0.25
6:53 pm 18:53 Cloudy 38 3.3 37 2.8 97 97 Calm 29.94 1014 10 16 0.00 0.03
7:53 pm 19:53 Cloudy with Light Rain 39 3.9 38 3.3 96 96 Calm 29.93 1014 6 10 0.00 0.03
8:53 pm 20:53 Cloudy with Light Rain 38 3.3 38 3.3 100 100 Calm 29.90 1013 3 5 0.03 0.76
9:53 pm 21:53 Cloudy with Light Rain 38 3.3 38 3.3 100 100 Calm 29.88 1012 4 6 0.04 1.02
10:53 pm 22:53 Cloudy with Light Rain 40 4.4 40 4.4 100 100 SSW 6 9 29.88 1012 6 10 0.04 1.02
11:48 pm 23:48 Cloudy 43 6 41 5 93 93 SSW 9 15 29.91 1013 10 16 0.00 0.00
11:53 pm 23:53 Cloudy 42 5.6 41 5 96 96 SSW 9 15 29.88 1012 10 16 0.02 0.51

Powered by AerisWeather